Location: Prague
(50.0830°N, 14.4670°E)
Time: 03:24:06
(UTC+01:00)

AO-7 - Pass Details

Date: 14 December 2021
Orbit: 1440 x 1459 km, 101.9° (Epoch: 28 January)

Event Time Altitude Azimuth Distance (km) Brightness Sun altitude
Rises 05:59:59 0° 18° (NNE) 4,552 ? -17.1°
Reaches altitude 10° 06:02:55 10° 12° (NNE) 3,573 ? -16.7°
Maximum altitude 06:10:34 43° 306° (NW) 1,942 ? -15.5°
Drops below altitude 10° 06:18:14 10° 238° (WSW) 3,570 ? -14.3°
Sets 06:21:10 0° 232° (SW) 4,548 ? -13.9°
